TimeEST,TemperatureF,Dew PointF,Humidity,Sea Level PressureIn,VisibilityMPH,Wind Direction,Wind SpeedMPH,Gust SpeedMPH,PrecipitationIn,Events,Conditions,WindDirDegrees,DateUTC
12:12 AM,39.2,39.2,100,30.01,1.5,Calm,Calm,-,N/A,,Overcast,0,2013-01-29 05:12:00
12:32 AM,39.2,39.2,100,30.01,0.8,Calm,Calm,-,N/A,,Overcast,0,2013-01-29 05:32:00
12:57 AM,37.4,37.4,100,30.00,1.5,Calm,Calm,-,N/A,,Overcast,0,2013-01-29 05:57:00
1:12 AM,37.4,37.4,100,29.98,2.0,East,4.6,-,N/A,,Overcast,90,2013-01-29 06:12:00
1:32 AM,37.4,37.4,100,29.98,2.0,Calm,Calm,-,N/A,,Overcast,0,2013-01-29 06:32:00
1:52 AM,37.4,37.4,100,29.98,1.8,East,3.5,-,N/A,,Overcast,90,2013-01-29 06:52:00
2:12 AM,37.4,37.4,100,29.97,1.5,ESE,4.6,-,N/A,,Overcast,120,2013-01-29 07:12:00
2:32 AM,37.4,37.4,100,29.97,1.0,ESE,4.6,-,N/A,,Overcast,120,2013-01-29 07:32:00
2:52 AM,37.4,37.4,100,29.97,0.5,ESE,3.5,-,N/A,Fog,Fog,110,2013-01-29 07:52:00
3:12 AM,37.4,37.4,100,29.96,0.5,SE,8.1,-,N/A,Fog,Fog,130,2013-01-29 08:12:00
3:38 AM,37.4,37.4,100,29.96,0.5,Calm,Calm,-,N/A,Fog,Fog,0,2013-01-29 08:38:00
4:13 AM,37.4,37.4,100,29.94,0.8,ESE,6.9,-,N/A,,Overcast,120,2013-01-29 09:13:00
4:33 AM,37.4,37.4,100,29.92,1.0,East,8.1,-,N/A,Rain,Light Rain,100,2013-01-29 09:33:00
4:58 AM,37.4,37.4,100,29.91,0.8,ESE,8.1,-,N/A,Rain,Heavy Rain,110,2013-01-29 09:58:00
5:13 AM,37.4,37.4,100,29.93,1.0,East,3.5,-,N/A,,Overcast,90,2013-01-29 10:13:00
5:33 AM,37.4,37.4,100,29.90,0.5,ESE,11.5,-,N/A,,Overcast,110,2013-01-29 10:33:00
5:53 AM,37.4,37.4,100,29.88,4.0,ESE,10.4,-,N/A,,Overcast,120,2013-01-29 10:53:00
6:13 AM,37.4,37.4,100,29.87,1.8,ESE,9.2,-,N/A,Rain,Light Rain,120,2013-01-29 11:13:00
6:34 AM,39.2,39.2,100,29.85,1.0,SE,5.8,-,N/A,,Overcast,130,2013-01-29 11:34:00
6:54 AM,41.0,41.0,100,29.83,0.5,SE,6.9,-,N/A,Fog,Fog,130,2013-01-29 11:54:00
7:14 AM,42.8,42.8,100,29.83,0.5,SSE,8.1,-,N/A,Fog,Fog,150,2013-01-29 12:14:00
7:34 AM,42.8,42.8,100,29.83,0.2,SSE,9.2,-,N/A,Fog,Fog,150,2013-01-29 12:34:00
7:54 AM,41.0,41.0,100,29.82,0.2,SSE,8.1,-,N/A,Fog,Fog,160,2013-01-29 12:54:00
8:14 AM,42.8,42.8,100,29.82,0.5,SSE,5.8,-,N/A,Fog,Fog,160,2013-01-29 13:14:00
8:34 AM,42.8,42.8,100,29.84,0.2,SW,3.5,-,N/A,Fog,Fog,220,2013-01-29 13:34:00
8:54 AM,42.8,42.8,100,29.82,0.5,South,4.6,-,N/A,Rain,Light Rain,180,2013-01-29 13:54:00
9:14 AM,46.4,46.4,100,29.82,1.0,South,9.2,-,N/A,Rain,Rain,190,2013-01-29 14:14:00
9:34 AM,50.0,48.2,94,29.80,1.5,SSW,9.2,-,N/A,Rain,Rain,200,2013-01-29 14:34:00
9:54 AM,51.8,51.8,100,29.80,2.5,SSW,10.4,-,N/A,,Overcast,210,2013-01-29 14:54:00
10:15 AM,53.6,51.8,94,29.81,3.0,SSW,10.4,16.1,N/A,Rain,Light Rain,210,2013-01-29 15:15:00
10:35 AM,53.6,53.6,100,29.80,2.5,SSW,10.4,-,N/A,,Overcast,200,2013-01-29 15:35:00
10:55 AM,53.6,53.6,100,29.80,2.0,SSW,13.8,-,N/A,,Overcast,210,2013-01-29 15:55:00
11:15 AM,55.4,53.6,94,29.80,2.0,SSW,13.8,17.3,N/A,Rain,Rain,210,2013-01-29 16:15:00
11:35 AM,55.4,55.4,100,29.79,2.5,SSW,11.5,-,N/A,,Overcast,210,2013-01-29 16:35:00
11:55 AM,55.4,55.4,100,29.80,2.5,SW,11.5,-,N/A,,Overcast,220,2013-01-29 16:55:00
12:15 PM,55.4,55.4,100,29.79,2.0,SSW,12.7,17.3,N/A,Rain,Light Rain,210,2013-01-29 17:15:00
12:35 PM,57.2,55.4,94,29.77,3.0,SSW,10.4,-,N/A,,Overcast,200,2013-01-29 17:35:00
12:56 PM,57.2,55.4,94,29.76,3.0,SSW,12.7,-,N/A,,Overcast,210,2013-01-29 17:56:00
1:16 PM,57.2,55.4,94,29.76,3.0,SSW,13.8,-,N/A,,Overcast,210,2013-01-29 18:16:00
1:31 PM,57.2,55.4,94,29.75,4.0,SW,15.0,19.6,N/A,,Overcast,220,2013-01-29 18:31:00
1:51 PM,57.2,55.4,94,29.74,4.0,SW,11.5,17.3,N/A,Rain,Rain,220,2013-01-29 18:51:00
2:11 PM,57.2,55.4,94,29.74,4.0,SSW,11.5,17.3,N/A,,Overcast,210,2013-01-29 19:11:00
2:31 PM,57.2,55.4,94,29.73,2.0,SSW,11.5,-,N/A,,Overcast,210,2013-01-29 19:31:00
2:51 PM,57.2,55.4,94,29.73,5.0,SSW,12.7,17.3,N/A,,Overcast,210,2013-01-29 19:51:00
3:11 PM,59.0,55.4,88,29.73,5.0,SSW,12.7,-,N/A,,Overcast,210,2013-01-29 20:11:00
3:31 PM,59.0,55.4,88,29.72,5.0,SSW,12.7,17.3,N/A,Rain,Rain,210,2013-01-29 20:31:00
3:51 PM,57.2,55.4,94,29.72,4.0,SSW,12.7,-,N/A,Rain,Light Rain,200,2013-01-29 20:51:00
4:11 PM,57.2,55.4,94,29.71,3.0,SSW,9.2,-,N/A,Rain,Light Rain,200,2013-01-29 21:11:00
4:36 PM,57.2,55.4,94,29.71,4.0,SSW,10.4,-,N/A,,Overcast,200,2013-01-29 21:36:00
4:52 PM,59.0,55.4,88,29.71,5.0,South,11.5,-,N/A,,Overcast,190,2013-01-29 21:52:00
5:12 PM,59.0,55.4,88,29.71,5.0,SSW,11.5,19.6,N/A,,Overcast,200,2013-01-29 22:12:00
5:32 PM,59.0,55.4,88,29.70,5.0,SSW,11.5,-,N/A,,Overcast,200,2013-01-29 22:32:00
5:52 PM,59.0,55.4,88,29.70,7.0,SSW,13.8,18.4,N/A,,Overcast,200,2013-01-29 22:52:00
6:12 PM,60.8,55.4,82,29.69,7.0,SSW,13.8,28.8,N/A,,Overcast,200,2013-01-29 23:12:00
6:32 PM,59.0,55.4,88,29.69,7.0,SSW,13.8,25.3,N/A,,Overcast,200,2013-01-29 23:32:00
6:52 PM,59.0,55.4,88,29.69,7.0,SSW,15.0,18.4,N/A,,Overcast,200,2013-01-29 23:52:00
7:13 PM,59.0,55.4,88,29.68,7.0,South,15.0,20.7,N/A,Rain,Rain,180,2013-01-30 00:13:00
7:33 PM,59.0,55.4,88,29.67,7.0,South,11.5,19.6,N/A,,Overcast,190,2013-01-30 00:33:00
7:53 PM,59.0,55.4,88,29.67,7.0,SSW,11.5,-,N/A,,Overcast,200,2013-01-30 00:53:00
8:13 PM,57.2,55.4,94,29.67,7.0,SSW,8.1,-,N/A,,Overcast,200,2013-01-30 01:13:00
8:33 PM,57.2,53.6,88,29.65,7.0,SSE,5.8,-,N/A,,Overcast,160,2013-01-30 01:33:00
8:53 PM,55.4,53.6,94,29.64,7.0,SSE,8.1,-,N/A,,Overcast,160,2013-01-30 01:53:00
9:13 PM,53.6,51.8,94,29.62,7.0,SE,4.6,-,N/A,,Overcast,140,2013-01-30 02:13:00
9:33 PM,53.6,51.8,94,29.61,5.0,SSE,5.8,-,N/A,,Overcast,160,2013-01-30 02:33:00
9:53 PM,53.6,51.8,94,29.59,5.0,SE,6.9,-,N/A,,Overcast,140,2013-01-30 02:53:00
10:13 PM,53.6,51.8,94,29.57,5.0,SSE,6.9,-,N/A,,Overcast,150,2013-01-30 03:13:00
10:33 PM,53.6,51.8,94,29.55,7.0,SSE,6.9,-,N/A,,Overcast,160,2013-01-30 03:33:00
10:53 PM,55.4,51.8,88,29.53,7.0,South,8.1,-,N/A,,Overcast,170,2013-01-30 03:53:00
11:14 PM,55.4,53.6,94,29.52,7.0,South,8.1,-,N/A,,Overcast,170,2013-01-30 04:14:00
11:34 PM,55.4,51.8,88,29.50,10.0,SSE,9.2,-,N/A,,Overcast,160,2013-01-30 04:34:00
11:54 PM,55.4,51.8,88,29.49,10.0,South,12.7,-,N/A,,Scattered Clouds,170,2013-01-30 04:54:00